Weather History for KBTV - May, 2013

Change the Weather History Date:

Tuesday, May 21, 2013

  Actual Average Record
Temperature  
Mean Temperature 63 °F 58 °F  
Max Temperature 68 °F 69 °F 92 °F (1911)
Min Temperature 58 °F 47 °F 29 °F (1964)
Degree Days  
Heating Degree Days 2 8  
Month to date heating degree days 100 224  
Since 1 July heating degree days 6567 7298  
Cooling Degree Days 0 1  
Month to date cooling degree days 15 4  
Year to date cooling degree days 15 6  
Growing Degree Days 12 (Base 50)    
Moisture  
Dew Point 57 °F    
Average Humidity 81    
Maximum Humidity 93    
Minimum Humidity 68    
Precipitation  
Precipitation 0.96 in 0.12 in 2.38 in (1889)
Month to date precipitation 1.69 2.23  
Year to date precipitation 8.22 11.09  
Snow  
Snow 0.00 in 0.00 in 0.00 in (2002)
Month to date snowfall 0.0 0.0  
Since 1 July snowfall 82.9 81.2  
Snow Depth 0.00 in    
Sea Level Pressure  
Sea Level Pressure 29.89 in    
Wind  
Wind Speed 7 mph (WNW)    
Max Wind Speed 30 mph    
Max Gust Speed 46 mph    
Visibility 9 miles    
Events Rain , Thunderstorm    
T = Trace of Precipitation, MM = Missing Value Source: NWS Daily Summary

Daily Weather History Graph

Daily Weather History Graph

Search for Another Location

Airport or City:

Trip Planner

Search our weather history database for the weather conditions in past years. The results will help you decide how hot, cold, wet, or windy it might be!

Date:

Astronomy

May. 21, 2013 Rise Set
Actual Time 5:18 AM EDT 8:20 PM EDT
Civil Twilight 4:44 AM EDT 8:54 PM EDT
Nautical Twilight 4:00 AM EDT 9:39 PM EDT
Astronomical Twilight 3:07 AM EDT 10:32 PM EDT
Moon 4:22 PM EDT (5/21) 2:54 AM EDT (5/21)
Length of Visible Light 16h 10m
Length of Day
15h 01m
Waxing Gibbous, 84% of the Moon is Illuminated
May 21
Waxing Gibbous
May 25
Full
May 31
Last Quarter
Jun 8
New
Jun 16
First Quarter

Hourly Weather History & Observations

Time (EDT) Temp. Dew Point Humidity Pressure Visibility Wind Dir Wind Speed Gust Speed Precip Events Conditions
12:54 AM 60.1 °F 57.9 °F 93% 29.96 in 10.0 mi NE 3.5 mph - N/A   Overcast
1:26 AM 60.8 °F 57.2 °F 88% 29.94 in 10.0 mi Calm Calm - N/A   Overcast
1:54 AM 60.1 °F 57.0 °F 90% 29.94 in 10.0 mi NE 3.5 mph - N/A   Overcast
2:54 AM 61.0 °F 57.0 °F 87% 29.89 in 10.0 mi East 5.8 mph - N/A   Overcast
3:12 AM 62.6 °F 57.2 °F 82% 29.88 in 10.0 mi SE 5.8 mph - N/A   Overcast
3:54 AM 62.1 °F 57.0 °F 84% 29.88 in 10.0 mi South 4.6 mph - N/A   Mostly Cloudy
4:39 AM 60.8 °F 57.2 °F 88% 29.92 in 10.0 mi WSW 15.0 mph 19.6 mph 0.00 in Rain , Thunderstorm Light Rain
4:48 AM 60.8 °F 59.0 °F 94% 29.88 in 1.8 mi SW 8.1 mph 18.4 mph 0.24 in Rain , Thunderstorm Rain
4:49 AM 61.0 °F 59.0 °F 93% 29.88 in 1.8 mi WSW 6.9 mph 18.4 mph 0.24 in Rain , Thunderstorm Rain
4:52 AM 60.8 °F 59.0 °F 94% 29.86 in 3.0 mi Variable 4.6 mph - 0.02 in Rain , Thunderstorm Rain
5:00 AM 60.8 °F 57.2 °F 88% 29.83 in 6.0 mi SE 12.7 mph 18.4 mph 0.03 in Rain , Thunderstorm Light Rain
5:07 AM 60.8 °F 59.0 °F 94% 29.82 in 6.0 mi ESE 9.2 mph 18.4 mph 0.05 in Rain Rain
5:54 AM 61.0 °F 59.0 °F 93% 29.84 in 6.0 mi NW 3.5 mph - 0.09 in   Mostly Cloudy
6:54 AM 63.0 °F 61.0 °F 93% 29.85 in 10.0 mi Calm Calm - N/A   Mostly Cloudy
7:54 AM 64.9 °F 62.1 °F 90% 29.86 in 10.0 mi SSW 8.1 mph - N/A   Mostly Cloudy
8:54 AM 66.9 °F 64.0 °F 90% 29.88 in 10.0 mi WSW 3.5 mph - N/A   Mostly Cloudy
9:12 AM 68.0 °F 62.6 °F 83% 29.89 in 10.0 mi WSW 4.6 mph - N/A   Mostly Cloudy
9:54 AM 66.9 °F 63.0 °F 87% 29.91 in 10.0 mi NNW 10.4 mph - N/A   Overcast
10:12 AM 64.4 °F 60.8 °F 88% 29.92 in 3.0 mi NNW 11.5 mph - N/A   Overcast
10:54 AM 63.0 °F 57.9 °F 84% 29.94 in 10.0 mi NW 17.3 mph - N/A   Overcast
11:03 AM 62.6 °F 57.2 °F 82% 29.93 in 10.0 mi NW 11.5 mph - N/A   Overcast
11:22 AM 62.6 °F 57.2 °F 82% 29.93 in 10.0 mi NW 9.2 mph - N/A   Overcast
11:54 AM 61.0 °F 55.0 °F 81% 29.94 in 10.0 mi WNW 10.4 mph - N/A   Mostly Cloudy
12:06 PM 59.0 °F 55.4 °F 88% 29.95 in 10.0 mi WNW 8.1 mph 18.4 mph N/A   Overcast
12:54 PM 61.0 °F 54.0 °F 78% 29.96 in 10.0 mi NNW 11.5 mph - N/A   Overcast
1:07 PM 60.8 °F 53.6 °F 77% 29.95 in 10.0 mi NW 11.5 mph - N/A   Overcast
1:42 PM 62.6 °F 55.4 °F 77% 29.94 in 10.0 mi NNW 5.8 mph - N/A   Mostly Cloudy
1:54 PM 62.1 °F 55.0 °F 78% 29.95 in 10.0 mi Variable 3.5 mph - N/A   Mostly Cloudy
2:50 PM 64.4 °F 55.4 °F 73% 29.95 in 10.0 mi NW 5.8 mph - N/A   Overcast
2:54 PM 64.0 °F 55.0 °F 73% 29.95 in 10.0 mi NW 6.9 mph - N/A   Overcast
3:54 PM 66.9 °F 55.9 °F 68% 29.92 in 10.0 mi Variable 5.8 mph - N/A   Scattered Clouds
4:54 PM 66.0 °F 55.0 °F 68% 29.90 in 10.0 mi NW 6.9 mph - N/A   Scattered Clouds
5:54 PM 66.0 °F 55.0 °F 68% 29.88 in 10.0 mi West 6.9 mph - N/A   Partly Cloudy
6:54 PM 63.0 °F 55.9 °F 78% 29.87 in 10.0 mi NW 9.2 mph - 0.00 in Rain Light Rain
7:54 PM 62.1 °F 55.9 °F 80% 29.85 in 10.0 mi NNW 4.6 mph - 0.00 in   Mostly Cloudy
8:30 PM 60.8 °F 55.4 °F 82% 29.95 in 4.0 mi WNW 29.9 mph 46.0 mph 0.00 in Rain , Thunderstorm Thunderstorms and Rain
8:34 PM 60.8 °F 57.2 °F 88% 29.95 in 1.8 mi NW 29.9 mph 46.0 mph 0.04 in Rain , Thunderstorm Heavy Thunderstorms and Rain
8:44 PM 59.0 °F 57.2 °F 94% 29.91 in 3.0 mi NNW 17.3 mph 33.4 mph 0.39 in Rain , Thunderstorm Heavy Thunderstorms and Rain
8:54 PM 59.0 °F 57.0 °F 93% 29.90 in 10.0 mi North 10.4 mph 21.9 mph 0.41 in Rain Light Rain
9:06 PM 59.0 °F 57.2 °F 94% 29.88 in 10.0 mi East 8.1 mph - 0.03 in Rain , Thunderstorm Rain
9:39 PM 60.8 °F 57.2 °F 88% 29.81 in 10.0 mi East 10.4 mph 24.2 mph 0.09 in Rain Light Rain
9:54 PM 60.1 °F 57.0 °F 90% 29.82 in 10.0 mi SSE 6.9 mph 18.4 mph 0.09 in   Mostly Cloudy
10:33 PM 57.2 °F 55.4 °F 94% 29.83 in 10.0 mi South 8.1 mph - N/A   Partly Cloudy
10:45 PM 57.2 °F 55.4 °F 94% 29.83 in 10.0 mi SSE 6.9 mph - N/A   Mostly Cloudy
10:54 PM 57.9 °F 55.9 °F 93% 29.83 in 10.0 mi South 5.8 mph - N/A   Overcast
11:08 PM 57.2 °F 55.4 °F 94% 29.82 in 10.0 mi South 10.4 mph - N/A   Overcast
11:54 PM 57.9 °F 55.9 °F 93% 29.80 in 10.0 mi South 5.8 mph - N/A   Scattered Clouds